Presure
328 322 337 383 373 369 360 364 374 315 315 324 326 324 302 292 279 276 278 270 283 292 278 282 287 281 317 310 280 286 273 267 252 248 250 242 242 261 246 263 245 221 213 225
320 354 348 373 365 362 349 354 366 312 314 321 311 311 302 290 276 279 278 282 287 285 275 294 290 298 301 305 284 295 277 255 266 256 251 251 253 239 257 239 249 242 238 219
329 357 345 366 360 353 344 343 355 305 306 310 310 319 297 287 282 283 280 265 273 284 275 275 277 270 253 288 298 283 285 292 275 266 261 271 256 262 247 246 241 240 240 234
352 348 334 351 347 342 341 333 345 302 298 300 302 298 305 287 283 277 272 270 283 278 264 276 258 265 265 268 278 283 284 277 272 267 269 264 252 256 250 243 242 241 236 228
332 344 343 324 355 341 339 329 335 319 292 295 296 299 291 283 282 271 275 273 270 276 298 280 274 257 258 263 265 269 276 275 249 245 264 261 265 262 257 246 241 232 236 235
336 331 331 334 325 355 336 330 324 331 297 287 288 291 297 291 286 286 293 280 281 265 271 291 290 274 265 269 289 278 268 266 274 269 267 274 247 262 250 247 243 243 239 227
314 319 329 342 328 321 351 332 327 321 326 291 284 285 283 279 275 270 273 282 280 275 275 273 268 273 274 271 291 285 292 278 269 270 266 268 256 266 243 249 244 249 230 235
323 317 309 314 321 319 318 357 331 335 323 325 290 288 280 276 272 272 269 266 277 274 277 254 258 279 271 295 273 262 299 303 287 269 275 271 265 269 254 260 245 252 242 242
316 316 324 322 314 308 330 325 340 341 329 319 324 296 287 282 278 270 269 268 270 265 294 282 270 286 258 272 277 273 263 317 285 272 302 302 286 289 279 264 263 251 248 252
346 345 335 321 324 337 309 308 334 325 364 328 323 315 328 295 286 281 275 276 275 271 277 275 268 273 271 269 266 273 273 279 314 298 272 268 298 299 303 292 286 284 283 252
390 391 373 369 359 323 328 331 312 317 331 333 360 327 317 324 321 294 284 280 277 277 277 275 276 278 273 271 282 283 262 277 264 278 289 279 277 275 285 290 291 279 290 290
325 332 331 362 407 411 372 353 331 327 324 320 338 336 361 334 317 321 325 293 288 288 287 281 275 275 272 271 269 270 274 277 262 269 283 285 276 277 275 279 279 281 288 293
340 347 344 341 335 334 340 381 419 377 357 332 342 326 337 337 367 316 321 313 321 337 297 292 286 285 286 275 273 273 270 274 273 256 254 282 273 269 266 274 273 272 273 273
343 341 343 351 351 357 363 362 348 337 393 428 367 343 339 329 337 342 352 355 349 325 315 326 332 310 296 291 289 287 280 286 278 299 277 268 254 277 266 268 269 263 263 266
344 348 348 350 351 356 359 360 356 360 365 358 362 413 403 349 341 348 336 339 345 364 361 359 351 321 314 317 339 308 296 291 287 286 282 278 282 286 281 275 265 271 275 270
340 338 338 350 481 472 470 471 474 476 448 359 361 371 374 397 420 367 347 347 355 333 340 351 372 372 349 345 333 316 335 336 330 318 312 286 280 283 280 287 282 281 281 283
355 340 344 482 476 465 467 486 501 493 483 475 474 474 366 366 373 386 412 426 357 345 348 351 332 336 350 367 364 344 331 327 322 327 315 313 308 314 302 295 293 298 301 296
353 347 353 470 485 522 543 594 599 573 568 590 557 531 498 478 481 377 369 373 392 415 398 360 346 344 344 329 329 340 344 369 374 350 340 325 313 307 305 302 301 301 300 301
357 350 348 482 529 562 502 481 473 473 470 463 636 641 613 558 532 495 477 429 358 367 371 366 410 405 376 351 341 334 328 325 328 316 299 318 344 358 361 364 368 370 369 371
358 370 349 491 533 521 484 469 467 495 492 482 662 663 651 635 624 551 534 504 477 478 461 352 361 364 348 348 410 400 380 356 342 333 323 318 315 315 320 309 321 304 295 301
363 365 377 357 515 512 483 460 451 496 498 493 485 673 646 630 628 625 562 541 531 497 466 465 476 489 368 353 360 360 350 339 366 394 399 394 375 353 345 341 336 328 324 322
370 359 342 361 373 485 504 476 459 451 498 513 507 495 672 660 645 629 624 555 546 527 491 467 462 467 473 469 475 472 396 381 356 358 358 354 346 341 343 374 387 386 378 368
377 362 347 344 394 386 367 498 475 456 450 453 508 515 503 488 646 631 611 568 524 501 487 470 462 462 459 462 464 464 463 462 461 460 461 462 425 422 357 347 344 345 346 364
376 370 360 348 347 375 390 379 515 492 467 459 453 444 453 519 508 498 487 470 458 453 453 453 453 450 444 443 445 447 449 452 455 457 466 473 471 468 464 461 456 447 434 418
394 377 376 363 350 353 362 362 396 395 467 493 467 463 459 453 450 446 444 454 480 495 502 506 510 510 508 507 507 504 498 485 476 468 460 480 482 472 465 462 459 451 445 434
433 409 385 380 369 350 340 361 358 352 356 373 394 405 446 465 467 458 442 431 431 434 438 441 441 440 438 436 430 428 433 441 461 502 505 503 473 456 453 475 488 477 461 450
395 449 416 388 375 374 357 345 361 350 343 344 346 352 366 385 407 418 422 422 429 444 460 457 450 445 432 416 416 421 426 440 450 458 468 431 420 416 415 420 448 496 477 459
Wind_Speed
25 24 22 16 18 15 15 16 19 29 33 38 43 53 57 57 55 56 56 54 55 57 64 64 63 70 48 66 91 98 106 113 116 111 116 118 118 118 116 112 113 123 121 127
24 19 18 13 14 14 15 16 18 29 33 38 44 52 60 59 56 56 54 51 52 57 61 56 56 50 54 63 79 73 102 104 111 110 106 108 110 110 112 113 111 112 118 124
22 15 15 10 11 13 14 17 19 30 33 38 45 53 58 61 62 58 52 59 57 57 60 60 61 68 81 59 64 81 85 82 97 105 110 109 110 110 111 107 110 110 115 115
20 14 12 11 12 14 16 18 21 32 34 38 43 47 53 58 60 56 55 57 59 59 63 64 69 69 72 72 67 66 80 90 94 96 100 97 103 107 107 107 112 114 115 115
21 16 12 12 10 14 17 21 23 32 35 39 42 47 52 54 58 58 60 59 60 60 64 67 71 73 73 74 77 76 73 81 93 94 94 96 92 98 105 109 116 113 117 116
16 17 14 12 13 11 18 22 26 30 40 40 42 46 53 55 58 60 61 63 60 63 63 62 63 73 73 73 75 80 83 84 84 88 89 89 99 99 106 112 116 120 118 115
17 16 16 13 13 16 14 22 28 33 39 45 45 48 52 56 56 56 58 63 64 65 65 64 65 66 67 68 66 70 81 83 85 89 90 93 102 105 107 112 110 115 112 115
18 15 16 16 15 17 19 17 27 31 39 46 51 52 53 56 58 59 58 57 63 64 65 64 66 66 67 58 69 74 67 77 84 86 89 93 97 103 108 110 108 112 112 118
23 22 20 17 18 20 19 21 23 30 37 45 52 58 57 57 59 59 60 60 61 61 68 67 67 61 67 65 65 69 74 67 77 79 78 82 93 94 104 109 112 113 114 117
24 23 19 22 22 22 24 26 25 29 29 43 50 57 70 68 66 64 63 65 65 62 64 64 64 64 66 69 68 66 65 64 71 80 80 81 80 79 80 88 90 96 100 112
27 28 30 34 26 27 26 25 30 32 33 37 40 52 59 65 76 74 70 71 71 70 70 68 69 69 66 66 67 64 70 67 72 69 74 79 81 81 78 79 83 90 87 93
23 26 26 26 28 30 35 34 33 35 37 40 41 46 47 59 66 71 79 79 80 81 82 76 74 73 71 71 70 71 71 72 75 72 71 80 82 82 81 81 82 84 86 89
29 29 28 27 27 26 29 30 34 42 39 42 43 47 48 52 53 60 70 74 78 85 89 87 82 83 84 78 78 79 77 78 77 80 79 78 82 82 82 84 83 82 84 87
36 33 35 35 33 34 33 32 32 35 37 42 47 48 50 53 55 57 60 64 70 76 80 84 88 94 95 95 92 90 88 89 85 87 84 84 81 89 87 88 88 89 92 92
40 41 40 40 39 37 35 33 33 35 36 38 41 44 50 54 56 58 59 61 65 66 70 74 78 83 83 82 86 103 101 96 93 93 91 87 87 89 91 93 92 93 94 94
43 43 44 45 42 39 38 37 36 37 38 37 39 42 45 48 53 61 61 61 63 66 67 68 69 75 78 79 80 84 83 90 97 98 98 95 94 95 93 96 96 96 97 100
45 42 43 47 44 40 37 36 34 34 34 36 39 40 43 46 50 52 55 59 65 65 66 67 70 71 71 71 78 82 82 82 85 88 92 93 92 96 99 98 99 100 99 98
53 54 56 54 50 45 41 39 36 31 30 30 31 35 37 41 42 48 51 54 56 60 66 69 70 69 69 73 74 75 75 77 79 84 88 91 91 92 93 94 95 96 97 97
54 53 55 56 50 45 39 33 30 28 27 27 28 27 27 31 35 39 42 46 52 56 56 58 63 69 72 72 72 71 73 74 76 77 78 81 81 81 82 82 82 83 84 84
56 57 56 56 51 47 42 38 33 31 27 24 24 22 22 23 22 28 31 37 40 41 43 55 58 61 62 61 67 70 73 75 76 77 77 79 80 80 80 81 82 82 83 83
59 61 61 59 52 47 43 39 37 32 29 26 23 22 19 17 16 16 21 26 29 32 35 38 40 42 55 60 62 64 66 66 70 73 76 76 78 79 79 80 79 80 81 81
62 62 63 63 59 51 46 42 40 38 34 29 26 23 16 15 15 12 12 16 20 19 26 31 33 35 33 37 41 46 57 62 66 68 69 69 68 69 70 73 75 76 78 79
64 65 65 64 62 58 53 49 44 41 39 36 31 27 23 19 12 7 7 5 8 11 17 19 22 25 26 31 32 35 39 43 46 50 53 55 60 61 70 70 71 71 71 72
67 66 64 64 64 62 62 57 48 44 42 40 37 35 32 25 20 18 14 9 8 10 11 12 14 16 19 22 25 27 30 33 36 39 41 42 44 47 49 52 55 59 63 66
66 65 61 62 62 64 61 59 58 56 51 44 42 39 37 34 30 27 24 20 15 10 7 6 7 9 10 12 15 17 20 23 26 29 33 33 33 36 38 41 43 45 47 50
62 61 63 61 62 63 62 58 56 56 56 55 55 52 45 40 36 33 30 27 23 20 17 14 11 9 7 6 7 9 11 13 16 20 23 25 24 26 27 29 31 34 37 39
81 59 60 63 62 59 58 59 57 55 54 53 52 52 52 51 48 44 40 36 32 28 24 21 18 15 11 8 6 4 4 5 7 9 12 12 15 18 19 21 23 24 27 29
Wind_Direction
303 298 295 293 281 271 255 243 227 218 214 212 206 202 205 203 212 213 218 217 219 218 221 222 222 219 221 220 221 223 221 220 224 227 226 230 231 231 234 225 231 235 236 235
305 307 296 291 274 265 248 241 222 216 212 208 210 201 203 206 217 217 215 220 224 220 223 215 223 223 219 217 219 225 223 225 225 227 228 229 230 233 229 233 229 233 233 237
313 321 297 297 272 253 239 233 222 215 213 209 208 204 205 210 215 220 215 216 221 219 220 219 220 221 219 222 224 222 221 225 227 228 229 232 230 230 229 230 230 231 229 232
327 323 295 292 265 251 234 229 220 215 213 212 210 213 208 211 215 219 218 217 222 220 219 216 222 223 224 223 222 224 226 228 226 225 228 231 228 230 228 230 231 229 229 231
315 322 312 278 276 249 234 227 221 215 216 215 214 210 213 212 213 217 221 221 222 223 226 223 222 226 226 227 225 224 223 226 228 230 231 230 230 230 229 228 229 229 229 229
308 304 297 285 263 261 238 228 223 217 217 218 216 215 210 212 215 217 216 222 223 223 225 228 226 226 229 229 228 228 229 227 226 226 230 230 229 230 226 227 228 228 229 229
308 301 301 299 270 253 251 230 225 222 217 221 220 217 217 218 219 220 222 221 222 224 224 225 225 227 228 229 231 231 230 231 230 231 231 232 231 231 229 231 231 232 231 232
317 302 289 281 272 258 247 252 231 227 222 218 225 224 220 221 224 224 225 223 227 227 226 224 227 228 230 228 229 230 232 232 234 235 235 232 234 235 234 234 235 235 234 235
311 308 304 290 272 259 260 246 246 234 228 224 222 228 229 228 228 229 231 231 229 227 231 230 227 231 229 229 228 228 230 231 234 234 233 236 238 238 238 238 238 237 237 238
315 309 290 288 285 282 257 248 250 240 243 232 227 226 225 230 232 233 234 236 237 237 238 236 233 233 234 234 234 233 232 233 230 230 236 238 238 241 242 242 241 241 241 237
323 316 306 305 295 277 272 260 250 244 242 239 239 232 231 229 229 233 235 237 239 241 241 241 241 242 241 240 245 240 234 234 233 236 235 238 240 241 242 242 243 240 241 242
335 328 323 313 305 295 283 275 260 255 247 242 243 238 238 234 233 232 232 237 239 239 240 241 242 243 243 243 243 243 241 237 235 237 238 239 241 242 243 244 245 246 248 250
346 336 328 319 311 302 295 286 279 269 258 254 247 243 242 238 239 237 236 236 235 236 239 241 242 244 245 245 246 246 245 245 240 239 240 239 240 241 242 244 244 244 246 247
346 343 335 328 320 313 305 294 280 278 268 264 255 251 245 244 241 238 238 238 238 238 238 238 240 241 243 246 247 246 246 247 247 248 244 241 243 240 241 242 243 242 243 245
347 343 338 332 325 317 308 298 287 280 272 265 260 255 254 248 248 245 241 239 240 240 240 240 240 240 240 240 240 241 246 247 248 248 247 247 248 246 243 243 246 246 247 246
351 348 343 337 329 322 315 307 299 291 282 270 264 258 252 250 250 247 247 246 242 241 241 241 242 242 242 241 240 240 241 242 244 244 245 245 247 247 247 248 249 250 251 252
357 354 350 343 338 333 325 316 308 298 288 281 276 271 257 253 250 247 247 248 246 247 245 242 244 243 242 242 243 243 243 243 243 243 245 246 246 247 248 249 251 252 254 255
1 360 356 348 345 339 334 328 324 318 309 301 286 278 270 265 261 251 248 246 245 246 246 246 248 247 244 245 244 243 244 243 244 246 247 247 247 248 249 250 252 253 254 256
5 5 3 353 347 344 348 345 337 329 320 311 306 301 288 274 267 261 257 251 248 247 244 245 245 246 246 246 247 248 248 249 248 248 249 249 248 248 249 249 249 250 252 253
9 9 9 359 354 355 357 356 352 347 340 330 316 308 299 294 287 267 260 256 254 251 250 247 245 245 247 247 248 247 248 248 249 249 249 250 252 252 252 252 253 253 253 255
13 14 11 12 2 3 5 3 359 358 353 349 343 318 314 306 298 288 267 262 258 254 253 251 250 250 248 248 247 247 247 247 248 249 250 250 249 251 254 255 255 256 257 257
17 17 18 15 14 11 11 12 10 8 8 3 359 356 328 317 309 306 291 263 265 260 251 251 254 255 252 250 248 247 248 249 250 251 252 252 252 252 252 254 254 254 254 256
19 19 19 16 18 18 18 18 17 16 15 15 14 11 12 5 352 350 308 305 285 264 260 259 257 256 253 253 252 250 249 249 249 250 251 251 251 251 253 254 255 255 255 256
21 20 17 18 18 21 24 23 24 25 24 23 23 23 25 26 21 17 15 5 334 310 296 282 269 262 257 257 255 253 251 251 251 251 251 249 249 249 249 250 250 251 253 254
21 20 20 20 19 23 23 25 29 30 32 31 31 30 30 32 31 30 30 31 29 22 359 324 299 288 276 267 260 253 251 251 251 249 250 250 248 247 248 249 249 250 250 252
18 18 20 22 23 22 23 24 26 29 32 34 36 35 36 37 37 38 36 35 34 32 29 22 16 7 349 325 298 283 274 267 261 252 249 248 245 244 245 246 246 245 247 248
23 18 20 21 23 24 22 23 24 26 26 29 32 33 36 38 40 41 40 39 39 39 38 36 33 29 25 15 1 341 312 286 270 260 253 235 235 240 243 245 246 239 238 243